Regional Weather Roundup
Issued by NWS

Home | Current Version | Previous Version | Graphics & Text | Print | Product List | Glossary On
Versions: 1 2 3 4 5 6 7 8 9 10 11 12 13 14 15 16 17 18 19 20 21 22 23 24 25 26 27 28 29 30 31 32 33 34 35 36 37 38 39 40 41 42 43 44 45 46 47 48 49 50
000
ASUS44 KMEG 190510
RWRTN
TENNESSEE HOURLY STATE WEATHER ROUNDUP
NATIONAL WEATHER SERVICE MEMPHIS TN
1200 AM CDT FRI SEP 19 2014

TNZ002-004-019-021-049-052-054-088>092-190600-
WEST TENNESSEE

CITY           SKY/WX    TMP DP  RH WIND       PRES   REMARKS
MEMPHIS INTL   CLOUDY    72  65  78 E7        30.01R
NWS MEMPHIS      N/A     68 N/A N/A MISG        N/A
JACKSON        PTCLDY    65  62  90 CALM      30.03S
DYERSBURG      PTCLDY    63  54  72 CALM      30.04R
UNION CITY     CLOUDY    63  59  88 NE5       30.03R
PARIS          MOCLDY    57  55  94 NE3       30.04S
HUNTINGDON     CLEAR     58  56  93 CALM      30.04R
LEXINGTON      MOCLDY    61  61 100 N5        30.02S
SAVANNAH       CLOUDY    66  66 100 CALM      30.03S
$$

TNZ008-025-027-028-033-062-065-066-190600-
NORTH MIDDLE TENNESSEE

CITY           SKY/WX    TMP DP  RH WIND       PRES   REMARKS
NASHVILLE      CLEAR     64  60  87 NE5       30.04S
DICKSON        CLEAR     63  57  82 E3        30.04S
PORTLAND       CLEAR     61  55  82 CALM      30.05S
CLARKSVILLE    CLEAR     60  55  83 NE3       30.05R
LEBANON        CLEAR     59  58  96 CALM      30.03S
SMYRNA         CLEAR     62  60  93 CALM      30.04S
MURFREESBORO   CLEAR     62  59  90 CALM      30.03S
COOKEVILLE     CLEAR     57  57 100 CALM      30.04F
LIVINGSTON     CLEAR     61  56  83 E5        30.08S
GALLATIN       CLEAR     63  59  87 NE3       30.05S
CROSSVILLE     CLEAR     60  55  83 NE3       30.09S
$$

TNZ061-075-076-078-094-096-097-190600-
SOUTH MIDDLE TENNESSEE

CITY           SKY/WX    TMP DP  RH WIND       PRES   REMARKS
LEWISBURG      PTCLDY    58  57  96 CALM      30.03S
FAYETTEVILLE   PTCLDY    64  57  77 NE5       30.03S
TULLAHOMA      PTCLDY    64  59  82 E5        30.05R
WINCHESTER     CLEAR     61  59  94 CALM      30.04R
MCMINNVILLE    CLEAR     63  63 100 CALM      30.05S
COLUMBIA       PTCLDY    61  61 100 CALM      30.01F
SHELBYVILLE    CLEAR     61  59  94 CALM      30.04S
$$

TNZ017-018-042-046-047-190600-
NORTHEAST TENNESSEE

CITY           SKY/WX    TMP DP  RH WIND       PRES   REMARKS
TRI CITIES     PTCLDY    58  53  84 CALM      30.09R
ELIZABETHTON   CLEAR     55  52  88 CALM      30.10R
$$

TNZ012-013-036-069-073-074-190600-
CENTRAL EAST TENNESSEE

CITY           SKY/WX    TMP DP  RH WIND       PRES   REMARKS
KNOXVILLE      MOCLDY    63  58  83 N7        30.04S
OAK RIDGE      CLEAR     61  58  90 CALM      30.07S
GATLINBURG     CLEAR     57  57 100 CALM      30.05S
MORRISTOWN     CLEAR     61  54  77 CALM      30.08S
$$

TNZ083-085-099-190600-
SOUTHEAST TENNESSEE

CITY           SKY/WX    TMP DP  RH WIND       PRES   REMARKS
CHATTANOOGA    PTCLDY    67  61  81 CALM      30.03S
$$

SKY/WX REPORTED AS FAIR MEANS FEW OR NO CLOUDS BELOW
12 THOUSAND FEET.




USA.gov is the U.S. government's official web portal to all federal, state and local government web resources and services.